[[{"header":{"parameterUnit":"m.s-1","parameterCategory":1,"la1":30.2991,"la2":30.254,"lo1":-89.0895,"lo2":-89.0444,"dy":0.0017,"dx":0.0017,"nx":28,"ny":28,"refTime":"2025-05-27T21:00:00:Z","depth":0,"parameterNumber":2,"parameterNumberName":"U-component_of_WINDS"},"data":[0,0,0,0,0,0,0,0,0,0,0,0,0,0,0,0,0,0,0,0,0,0,0,0,0,0,0,0,0,0,0,0,0,0,0,0,0,0,0,0,0,0,0,0,0,0,0,0,0,0,0,0,0,0,0,0,0,0,0.6155,0.6158,0,0.6361,0.6363,0.6366,0.6426,0.6425,0.6423,0.6422,0.6639,0.6646,0.6652,0,0,0,0,0,0,0,0,0,0,0,0,0,0.5823,0.5829,0.6155,0.6158,0.616,0.636,0.6363,0.6366,0.6426,0.6425,0.6423,0.6422,0.6637,0.6645,0.6653,0,0,0,0,0,0,0,0,0,0,0,0,0,0.5992,0.5831,0.6155,0.6214,0.6221,0.636,0.6363,0.6367,0.6426,0.6425,0.6423,0.6421,0.6634,0.6644,0.6654,0.675,0,0,0.6685,0.669,0,0,0,0,0,0,0,0,0.5982,0.6004,0.6203,0.621,0.6219,0.6366,0.6326,0.6496,0.6427,0.6349,0.6422,0.6421,0.655,0.6567,0.6609,0.676,0.6769,0.6686,0.6692,0.6697,0.67,0,0,0,0,0,0,0,0.5971,0.5996,0.6237,0.6206,0.6216,0.6233,0.6256,0.6358,0.6456,0.6355,0.636,0.6383,0.6554,0.6599,0.6615,0.6773,0.6686,0.6695,0.6701,0.6705,0.7018,0.702,0,0,0,0,0,0,0.5948,0.5986,0.623,0.6243,0.6094,0.6241,0.6265,0.632,0.6455,0.6474,0.6385,0.6385,0.6583,0.6603,0.6623,0.6747,0.6697,0.6706,0.6712,0.7016,0.7019,0.7021,0,0,0,0,0,0,0.594,0.5969,0.6222,0.6116,0.6149,0.6248,0.6309,0.6325,0.6371,0.6477,0.6496,0.6412,0.6582,0.6608,0.6719,0.6755,0.6711,0.672,0.7013,0.7017,0.702,0.6995,0,0,0,0,0,0,0.5931,0.5966,0.6001,0.6116,0.6155,0.6312,0.6312,0.6331,0.6387,0.639,0.6508,0.6526,0.6583,0.6703,0.6729,0.6769,0.6728,0.7011,0.7015,0.7019,0.6993,0.6997,0.7,0,0,0,0,0,0.5918,0.5986,0.6002,0.6032,0.62,0.6314,0.6336,0.6398,0.639,0.6428,0.6497,0.6522,0.6747,0.6714,0.6743,0.6787,0.7009,0.7014,0.7018,0.6991,0.6996,0.7,0,0,0,0,0,0,0.5874,0.6002,0.6022,0.6128,0.6209,0.6323,0.6373,0.6401,0.6488,0.6487,0.6562,0.6589,0.6695,0.6752,0.6713,0.6889,0.6879,0.689,0.6848,0.6854,0.6857,0.6842,0.6736,0,0,0,0,0,0.5876,0.5955,0.6064,0.6147,0.6187,0.6273,0.6324,0.6365,0.6454,0.6489,0.6566,0.6653,0.6744,0.6801,0.689,0.7001,0.703,0.7046,0.705,0.7052,0.7062,0.7129,0.7138,0.7037,0.7037,0.7037,0,0,0.5882,0.5962,0.6008,0.6141,0.6208,0.6292,0.6301,0.6388,0.6452,0.6503,0.6612,0.6672,0.6774,0.6886,0.6939,0.6937,0.7096,0.7059,0.706,0.7068,0.7135,0.7144,0.7153,0.7041,0.704,0.704,0,0,0.5937,0.6003,0.6082,0.615,0.6252,0.631,0.6328,0.644,0.6481,0.6591,0.6633,0.6711,0.6864,0.6936,0.6993,0.7078,0.7107,0.7105,0.7126,0.719,0.7198,0.7206,0.724,0.725,0.7114,0.7114,0.7114,0,0.5932,0.6056,0.6119,0.6205,0.6264,0.6313,0.6396,0.6459,0.6586,0.6628,0.6623,0.6819,0.6891,0.7022,0.7043,0.7087,0.7114,0.7093,0.7191,0.72,0.7208,0.7241,0.7253,0.7113,0.7113,0.7114,0.7114,0,0.6047,0.6133,0.6185,0.6306,0.6371,0.6454,0.6533,0.6592,0.6628,0.6687,0.6801,0.689,0.6999,0.7033,0.7069,0.7172,0.7168,0.7176,0.7167,0.7216,0.7248,0.7261,0.7113,0.7113,0.7113,0.7113,0,0,0.6078,0.6234,0.6252,0.6309,0.6427,0.6497,0.6585,0.669,0.6741,0.6828,0.6906,0.7036,0.7046,0.7111,0.7156,0.7212,0.7279,0.7215,0.7219,0.7226,0.7402,0.7396,0.7409,0.7298,0.73,0.7303,0.7394,0,0.6149,0.6305,0.6366,0.6495,0.6578,0.6627,0.6705,0.6787,0.6846,0.6927,0.6992,0.7084,0.7088,0.7128,0.7186,0.7258,0.7316,0.7252,0.7375,0.7378,0.7349,0.7426,0.742,0.7501,0.7407,0.7409,0.7411,0,0.6253,0.634,0.6476,0.6588,0.6625,0.6693,0.6797,0.6873,0.697,0.7008,0.7081,0.7124,0.7222,0.7206,0.7345,0.73,0.7355,0.7398,0.7403,0.7418,0.7398,0.7446,0.7529,0.7542,0.7431,0.7429,0.7428,0,0.6265,0.6417,0.6519,0.6566,0.6698,0.6745,0.6803,0.6898,0.6959,0.7051,0.7092,0.7194,0.7251,0.7331,0.7402,0.7383,0.7535,0.7524,0.7573,0.7572,0.7604,0.7601,0.7699,0.7635,0.7635,0.7634,0.7634,0,0.634,0.6422,0.6527,0.659,0.6686,0.6757,0.685,0.6912,0.6996,0.7075,0.7124,0.7198,0.7285,0.7371,0.7427,0.7536,0.756,0.7597,0.7612,0.7594,0.759,0.7632,0.7629,0.7638,0.7637,0.7636,0.7636,0,0.637,0.6443,0.6559,0.6674,0.6706,0.6771,0.6872,0.6937,0.6998,0.7098,0.7125,0.7222,0.7326,0.7404,0.7539,0.7577,0.7693,0.7707,0.766,0.7668,0.7714,0.7709,0.7844,0.7867,0.7784,0.7785,0.7785,0,0.6413,0.6478,0.6601,0.6657,0.6714,0.6802,0.6865,0.6938,0.7002,0.7119,0.7172,0.7279,0.7368,0.7533,0.7617,0.7722,0.7741,0.7781,0.7757,0.7738,0.7745,0.7741,0.775,0.7784,0.7785,0.7785,0.7785,0,0.6484,0.6518,0.6605,0.6706,0.678,0.6863,0.6948,0.6991,0.7081,0.7151,0.7257,0.7327,0.7465,0.7573,0.7686,0.7749,0.7784,0.7792,0.781,0.7793,0.7765,0.7784,0.7672,0.7789,0.7789,0.7788,0.7788,0.7788,0.6525,0.6586,0.6683,0.678,0.6851,0.693,0.6998,0.7068,0.7157,0.7274,0.7313,0.7424,0.7524,0.768,0.7744,0.7834,0.7835,0.7859,0.7866,0.7871,0.7872,0.7748,0.7855,0.7855,0.7855,0.7855,0.7855,0,0.6601,0.6666,0.6754,0.6871,0.6949,0.6972,0.7068,0.7132,0.7229,0.7317,0.7405,0.7529,0.7635,0.7728,0.7838,0.7893,0.7912,0.7919,0.7917,0.7932,0.7863,0.7838,0.7902,0.7902,0.7902,0.7902,0.7902,0.7902,0.665,0.6756,0.6801,0.6945,0.7011,0.7118,0.7172,0.7246,0.7318,0.7454,0.7541,0.76,0.7693,0.781,0.791,0.7935,0.7974,0.7979,0.8008,0.7942,0.7937,0.7931,0.7908,0.7986,0.7986,0.807,0.8071,0.8072]},{"header":{"parameterUnit":"m.s-1","parameterCategory":1,"la1":30.2991,"la2":30.254,"lo1":-89.0895,"lo2":-89.0444,"dy":0.0017,"dx":0.0017,"nx":28,"ny":28,"refTime":"2025-05-27T21:00:00:Z","depth":0,"parameterNumber":3,"parameterNumberName":"V-component_of_WINDS"},"data":[0,0,0,0,0,0,0,0,0,0,0,0,0,0,0,0,0,0,0,0,0,0,0,0,0,0,0,0,0,0,0,0,0,0,0,0,0,0,0,0,0,0,0,0,0,0,0,0,0,0,0,0,0,0,0,0,0,0,-1.2198,-1.2196,0,-1.198,-1.1977,-1.1975,-1.1952,-1.1954,-1.1956,-1.1958,-1.1717,-1.1709,-1.1701,0,0,0,0,0,0,0,0,0,0,0,0,0,-1.2579,-1.2572,-1.2199,-1.2196,-1.2193,-1.198,-1.1977,-1.1974,-1.1951,-1.1954,-1.1957,-1.1959,-1.172,-1.171,-1.17,0,0,0,0,0,0,0,0,0,0,0,0,0,-1.2392,-1.257,-1.2199,-1.2157,-1.2151,-1.1981,-1.1977,-1.1973,-1.1951,-1.1954,-1.1957,-1.1961,-1.1723,-1.1711,-1.1698,-1.1551,0,0,-1.1659,-1.1654,0,0,0,0,0,0,0,0,-1.2402,-1.2378,-1.2165,-1.2159,-1.2152,-1.1997,-1.2023,-1.1831,-1.195,-1.2026,-1.1958,-1.1962,-1.1806,-1.1787,-1.1738,-1.1539,-1.1529,-1.1658,-1.165,-1.1645,-1.1641,0,0,0,0,0,0,0,-1.2415,-1.2387,-1.2111,-1.2162,-1.2154,-1.2142,-1.212,-1.1986,-1.1899,-1.202,-1.2018,-1.1993,-1.1803,-1.175,-1.1732,-1.1526,-1.1658,-1.1647,-1.1639,-1.1634,-1.1188,-1.1184,0,0,0,0,0,0,-1.2439,-1.2398,-1.2118,-1.2105,-1.2289,-1.2133,-1.2107,-1.2043,-1.1901,-1.1883,-1.199,-1.1993,-1.1771,-1.1747,-1.1723,-1.1536,-1.1645,-1.1633,-1.1626,-1.1192,-1.1187,-1.1182,0,0,0,0,0,0,-1.2447,-1.2414,-1.2127,-1.2251,-1.2214,-1.2123,-1.205,-1.2037,-1.1984,-1.1879,-1.1861,-1.1953,-1.1772,-1.1741,-1.1593,-1.1528,-1.1627,-1.1615,-1.1197,-1.119,-1.1184,-1.1164,0,0,0,0,0,0,-1.2458,-1.2417,-1.2365,-1.225,-1.2207,-1.2006,-1.2047,-1.203,-1.1964,-1.1965,-1.1839,-1.1821,-1.1773,-1.1613,-1.1581,-1.1512,-1.1605,-1.1202,-1.1194,-1.1186,-1.117,-1.1158,-1.1148,0,0,0,0,0,-1.2472,-1.2365,-1.2362,-1.2328,-1.214,-1.2003,-1.1978,-1.1929,-1.1959,-1.1902,-1.1833,-1.1825,-1.1542,-1.1598,-1.1562,-1.1488,-1.1206,-1.1196,-1.1187,-1.1175,-1.116,-1.1148,0,0,0,0,0,0,-1.2469,-1.235,-1.2345,-1.2199,-1.2112,-1.2,-1.1926,-1.1915,-1.1813,-1.1818,-1.1756,-1.1727,-1.158,-1.152,-1.1585,-1.1334,-1.1376,-1.1359,-1.1379,-1.1364,-1.1353,-1.1368,-1.1595,0,0,0,0,0,-1.2453,-1.2357,-1.2256,-1.2136,-1.2094,-1.2018,-1.1956,-1.1926,-1.183,-1.1792,-1.1713,-1.1616,-1.1504,-1.1431,-1.1323,-1.1163,-1.113,-1.1093,-1.1082,-1.1073,-1.1057,-1.0961,-1.0942,-1.1151,-1.1151,-1.1152,0,0,-1.2416,-1.2339,-1.2281,-1.2134,-1.2063,-1.1958,-1.1986,-1.1876,-1.1795,-1.1773,-1.1629,-1.1567,-1.1454,-1.1298,-1.1225,-1.1242,-1.0993,-1.1061,-1.1055,-1.1044,-1.095,-1.093,-1.0912,-1.1145,-1.1146,-1.1147,0,0,-1.2294,-1.223,-1.2121,-1.205,-1.1943,-1.1893,-1.1867,-1.1756,-1.1715,-1.1571,-1.155,-1.1451,-1.1262,-1.1181,-1.1114,-1.096,-1.0946,-1.0926,-1.0865,-1.0772,-1.0755,-1.074,-1.0679,-1.0658,-1.0912,-1.0912,-1.0912,0,-1.226,-1.2108,-1.2065,-1.1955,-1.1887,-1.1868,-1.1753,-1.1684,-1.1545,-1.1496,-1.152,-1.1279,-1.1202,-1.1024,-1.0986,-1.0936,-1.0898,-1.0938,-1.0763,-1.0747,-1.0732,-1.0672,-1.065,-1.0909,-1.091,-1.091,-1.091,0,-1.2068,-1.1962,-1.1886,-1.1757,-1.1682,-1.157,-1.1504,-1.1431,-1.1407,-1.1353,-1.1202,-1.1109,-1.0979,-1.0936,-1.091,-1.0751,-1.0765,-1.0777,-1.0816,-1.0711,-1.0653,-1.0631,-1.0906,-1.0907,-1.0908,-1.0908,0,0,-1.1937,-1.1786,-1.1758,-1.1697,-1.1578,-1.1492,-1.1376,-1.1254,-1.119,-1.1095,-1.0991,-1.0831,-1.084,-1.0765,-1.0729,-1.0649,-1.0524,-1.0668,-1.0665,-1.064,-1.0336,-1.0325,-1.03,-1.0517,-1.0512,-1.0509,-1.0344,0,-1.1797,-1.1597,-1.1553,-1.1377,-1.1274,-1.1254,-1.1152,-1.1063,-1.1009,-1.0909,-1.0846,-1.0732,-1.0756,-1.0709,-1.0629,-1.0557,-1.0461,-1.0569,-1.0412,-1.0407,-1.0436,-1.0271,-1.0259,-1.0107,-1.0322,-1.0318,-1.0315,0,-1.1607,-1.1512,-1.1326,-1.1217,-1.1172,-1.1082,-1.0964,-1.0872,-1.0769,-1.0734,-1.065,-1.0623,-1.0494,-1.0544,-1.0361,-1.0435,-1.0368,-1.0323,-1.0315,-1.0294,-1.0351,-1.0239,-1.0059,-1.0034,-1.0281,-1.0283,-1.0286,0,-1.1523,-1.1347,-1.1213,-1.1162,-1.1032,-1.0968,-1.091,-1.0812,-1.0739,-1.0635,-1.0586,-1.0466,-1.0399,-1.0304,-1.0242,-1.0285,-1.0061,-1.0108,-1.0022,-1.0023,-0.9972,-0.9975,-0.9773,-0.9939,-0.9939,-0.994,-0.994,0,-1.1369,-1.1254,-1.1173,-1.1089,-1.0958,-1.0908,-1.0777,-1.0718,-1.063,-1.0529,-1.0504,-1.0408,-1.0335,-1.0228,-1.0178,-1.0031,-1.0002,-0.9964,-0.9951,-0.9964,-0.9967,-0.9915,-0.9921,-0.9934,-0.9935,-0.9936,-0.9937,0,-1.125,-1.1193,-1.1043,-1.0933,-1.0903,-1.081,-1.0713,-1.0627,-1.0573,-1.0446,-1.0412,-1.0324,-1.0196,-1.0127,-0.9965,-0.9932,-0.9765,-0.976,-0.9801,-0.9794,-0.971,-0.9717,-0.9462,-0.9423,-0.9621,-0.962,-0.9618,0,-1.1153,-1.1065,-1.0947,-1.088,-1.0822,-1.0715,-1.0642,-1.0587,-1.0511,-1.0386,-1.0313,-1.0186,-1.008,-0.9875,-0.9792,-0.9666,-0.9655,-0.9574,-0.9635,-0.9648,-0.9645,-0.9649,-0.9637,-0.9561,-0.956,-0.9558,-0.9557,0,-1.0984,-1.096,-1.0859,-1.0747,-1.0662,-1.0569,-1.0477,-1.0422,-1.0351,-1.0266,-1.0138,-1.0056,-0.9892,-0.9762,-0.963,-0.9563,-0.9544,-0.954,-0.9512,-0.952,-0.9545,-0.9524,-0.9765,-0.9544,-0.9545,-0.9546,-0.9547,-0.9548,-1.0869,-1.0788,-1.0692,-1.0578,-1.0505,-1.0419,-1.0332,-1.0268,-1.0162,-1.0028,-1.0001,-0.9863,-0.9756,-0.9578,-0.9507,-0.9394,-0.9408,-0.937,-0.9359,-0.9349,-0.9343,-0.9569,-0.937,-0.937,-0.937,-0.9371,-0.9371,0,-1.0693,-1.0631,-1.0528,-1.0402,-1.0311,-1.031,-1.0207,-1.0129,-1.001,-0.9916,-0.9813,-0.9662,-0.9535,-0.9443,-0.9312,-0.9239,-0.9226,-0.9205,-0.9207,-0.919,-0.934,-0.9374,-0.9217,-0.9217,-0.9217,-0.9217,-0.9217,-0.9217,-1.0591,-1.0453,-1.0416,-1.0238,-1.0174,-1.0043,-0.9984,-0.9902,-0.9826,-0.966,-0.9557,-0.95,-0.9403,-0.9265,-0.9147,-0.9122,-0.9072,-0.9051,-0.9024,-0.9164,-0.918,-0.9196,-0.9227,-0.9042,-0.9042,-0.8883,-0.8881,-0.888]}]]